Theta_e
345 345 345 345 345 345 346 347 346 346 346 346 347 346 345 345 344 344 344 344 344 343 343 343 344 344 343 343 343 343 343 343 342 341 339 339 341 342 342 342 342 343 343 343 341 340 338 336 336 337 338 339 339 339 338 338 339 339 339 339 339 339 338 338 338 338 338 338 338 338 338 339 339 339 339 339 339 339 339 339 338 338 338 338 338
347 347 347 347 346 346 346 346 346 346 347 347 347 347 346 345 345 344 343 344 345 344 343 344 344 344 344 344 344 343 344 343 342 341 340 340 341 343 343 342 342 343 344 343 342 342 339 336 335 337 338 339 339 339 338 338 338 339 340 339 339 339 338 338 337 337 338 338 338 338 338 338 339 338 338 338 338 338 338 338 338 338 338 338 338
348 348 348 348 347 346 346 346 347 346 346 347 347 347 347 346 346 344 344 345 346 345 344 344 344 344 344 344 344 344 344 343 342 341 340 340 340 342 343 343 343 343 344 344 343 343 341 338 336 336 336 337 338 339 338 339 339 339 340 339 339 339 338 338 338 337 337 338 338 338 338 338 338 337 337 338 337 337 337 336 336 337 338 337 338
348 347 347 346 346 346 346 346 346 346 346 347 347 347 347 347 346 345 345 345 345 345 345 346 345 345 345 345 345 345 344 344 343 341 340 340 340 341 342 343 343 343 344 344 344 343 343 341 337 335 335 336 338 339 338 339 340 339 340 340 339 339 339 339 339 339 338 338 338 338 338 338 338 336 335 337 338 337 336 335 335 336 337 337 337
347 347 347 347 345 345 346 346 346 346 346 347 347 347 347 346 345 345 346 346 345 346 346 346 346 346 346 346 346 346 345 344 344 342 340 340 340 341 341 342 343 344 344 344 344 343 343 343 340 336 335 335 337 339 339 339 340 339 339 340 339 339 339 340 339 339 339 338 338 338 338 338 338 336 335 336 337 336 336 336 335 334 334 336 337
347 347 348 348 347 346 347 347 346 346 346 346 347 346 346 345 345 346 346 346 346 346 346 347 346 346 346 346 346 346 346 345 344 343 341 340 340 341 341 342 343 344 345 345 345 344 343 343 342 339 336 335 335 338 339 339 340 339 339 339 339 338 338 340 340 339 339 339 339 339 339 339 339 338 336 336 336 336 336 336 336 336 334 334 335
348 348 349 348 347 347 347 347 346 346 346 345 346 346 346 347 347 347 347 346 346 346 347 347 347 346 346 346 346 346 346 345 344 344 342 340 340 341 342 343 344 344 345 345 345 345 344 343 343 342 338 336 335 336 338 340 340 340 339 339 340 339 339 339 340 340 340 340 340 339 338 339 339 339 338 337 336 336 336 337 337 338 336 335 334
348 348 348 348 347 346 346 347 347 347 346 346 346 346 347 347 347 346 346 346 347 347 347 347 347 346 345 345 346 346 346 346 345 344 343 342 341 341 342 343 344 345 345 345 346 346 345 343 343 344 342 339 337 335 336 338 340 340 339 340 340 340 340 340 340 340 340 339 339 338 338 339 339 338 338 337 337 336 337 337 337 337 337 337 335
347 346 347 348 348 347 346 347 347 348 348 348 346 346 346 346 346 346 347 347 347 347 347 346 346 346 345 345 345 346 346 346 345 345 344 343 342 342 342 342 343 345 345 346 346 346 346 345 344 345 344 343 342 339 335 335 338 339 339 340 340 340 340 341 341 340 340 340 339 339 338 339 339 338 338 338 338 337 338 338 338 338 338 337 337
347 347 348 348 348 348 348 348 348 348 348 347 347 346 346 346 346 347 347 347 347 347 347 346 346 346 345 345 345 345 346 345 345 345 345 344 344 343 343 342 342 343 345 346 346 346 346 346 345 345 344 344 344 342 338 334 335 338 340 340 340 341 341 340 341 341 341 340 340 340 339 339 340 339 338 338 338 338 338 339 339 338 338 337 337
348 348 348 348 348 348 348 347 347 348 347 347 347 347 346 346 346 346 347 347 346 347 348 347 347 346 346 346 345 345 345 345 345 345 345 345 344 344 344 343 342 342 344 345 346 346 346 346 346 345 344 344 344 344 341 337 334 334 338 340 341 341 341 340 340 340 341 341 341 341 340 340 340 340 339 339 339 339 338 338 338 339 338 338 338
347 347 347 347 348 348 347 346 346 346 346 346 347 346 346 346 346 346 346 346 346 347 350 349 347 347 347 346 345 345 345 346 346 345 345 345 345 345 345 344 344 343 343 343 344 345 346 347 347 346 345 345 345 345 344 341 337 333 333 336 339 341 341 339 340 341 341 342 342 342 341 340 340 340 340 339 339 340 339 337 337 338 339 339 339
347 347 346 346 347 346 346 346 345 345 345 346 346 346 346 346 346 346 346 345 345 347 348 348 347 347 347 347 346 346 346 346 346 345 345 345 345 345 345 345 345 345 344 343 343 344 345 346 347 346 345 345 345 345 345 344 342 337 332 330 332 336 339 339 340 341 341 341 342 342 342 341 341 341 340 340 339 340 340 339 337 338 340 339 339
347 347 347 347 346 346 346 346 345 345 345 345 346 346 346 346 346 346 346 346 346 346 347 347 347 347 348 348 347 346 345 345 345 345 345 345 345 345 345 345 345 346 345 345 344 343 344 346 346 346 345 345 345 346 346 345 345 343 338 332 328 329 333 339 341 342 341 340 341 342 342 342 342 341 340 341 341 340 341 339 337 338 340 339 339
348 348 348 348 347 346 347 346 345 345 345 346 346 346 345 345 345 346 346 346 346 346 346 347 347 347 348 348 347 346 345 345 345 345 345 345 345 345 345 345 345 346 346 347 346 344 343 345 346 346 345 345 345 346 346 346 346 345 342 338 333 328 328 333 338 341 342 341 340 341 342 342 342 341 340 341 341 341 341 338 336 339 341 340 339
348 348 347 347 347 347 347 347 346 346 346 346 346 345 345 345 345 345 345 345 346 346 346 346 347 347 347 347 347 347 346 345 346 346 346 346 346 345 345 345 345 345 346 347 347 345 344 345 346 346 345 345 346 346 346 346 346 345 344 342 339 334 330 329 330 335 340 341 340 341 342 341 341 341 340 340 339 339 340 338 336 338 340 339 340
344 345 346 346 346 345 346 346 345 345 345 345 346 346 346 345 345 346 345 345 346 347 347 347 347 346 347 347 347 347 347 346 346 346 346 346 346 346 346 346 346 345 346 347 347 347 344 344 345 345 345 345 346 346 346 346 346 345 344 343 342 339 336 333 329 329 333 337 338 341 341 341 341 341 340 339 338 338 338 338 336 337 339 340 341
335 336 338 340 342 343 343 344 343 343 343 343 343 344 345 345 346 346 345 345 346 347 347 347 346 346 346 347 347 347 347 347 347 346 346 346 346 347 347 347 347 346 346 347 348 347 346 344 345 345 346 345 346 346 346 347 346 346 345 344 343 343 342 339 335 331 329 332 336 339 341 341 341 341 340 339 338 337 336 336 336 336 339 341 342
328 329 329 330 333 336 336 336 336 338 341 341 340 340 342 344 346 346 345 345 346 346 346 347 347 347 346 346 346 346 347 347 347 347 346 346 346 346 347 348 348 348 347 348 348 348 347 345 344 344 345 345 346 346 347 347 347 346 346 345 345 344 344 343 341 337 332 330 332 334 337 340 340 340 339 339 339 337 335 335 336 337 339 342 341
325 327 326 326 328 330 331 330 329 331 333 335 336 337 337 339 342 345 346 346 346 345 346 347 347 347 347 346 346 346 346 347 347 347 346 346 346 346 346 347 348 349 349 348 349 349 348 347 345 345 345 345 345 346 346 347 347 347 347 346 345 345 344 344 344 342 338 333 331 330 331 336 339 339 338 338 339 337 333 333 335 337 340 342 339
325 326 326 325 327 329 330 330 328 327 327 328 331 333 333 334 337 341 345 345 346 346 347 346 346 346 346 346 346 346 346 346 347 347 346 346 347 346 346 346 347 348 348 349 349 349 349 349 348 347 346 346 345 345 346 346 346 347 347 346 346 346 345 345 344 345 343 339 334 331 328 329 333 337 338 338 338 336 330 329 331 335 339 341 337
325 325 325 325 325 328 329 329 328 328 327 326 325 327 329 330 331 335 340 344 344 344 345 345 346 346 346 346 346 347 346 345 345 346 347 347 347 347 347 346 347 347 347 348 348 349 349 349 349 348 348 347 346 345 346 347 347 346 346 346 346 346 346 345 345 345 345 343 340 336 332 328 327 331 335 337 338 336 329 326 329 333 338 338 336
324 324 324 325 325 325 326 326 325 326 326 326 325 324 325 327 327 328 333 339 342 342 342 344 344 345 345 346 346 346 346 346 346 346 346 347 347 347 347 347 347 347 346 347 348 348 349 349 349 349 348 348 347 347 347 348 348 346 345 345 346 346 346 346 345 345 345 345 344 341 337 333 327 325 329 334 337 337 333 330 329 332 335 335 336
324 324 324 324 325 325 325 325 324 324 324 326 327 327 326 327 327 326 328 332 336 338 340 342 342 343 344 345 346 346 345 346 346 346 345 345 346 346 346 346 347 347 346 346 346 347 348 349 349 349 349 348 348 348 348 348 348 347 345 345 345 346 346 346 346 345 345 345 345 344 342 339 334 327 324 328 334 338 337 335 333 333 334 335 337
324 324 324 324 325 326 326 326 326 325 325 329 331 332 331 330 329 329 328 329 330 332 334 336 338 341 342 344 346 346 345 345 345 346 346 346 346 347 347 347 347 347 346 346 346 346 347 348 349 349 349 349 348 348 349 348 348 346 346 345 345 346 345 346 346 345 345 345 345 346 345 342 339 333 326 324 328 334 338 339 338 337 336 337 338
324 323 323 324 324 325 326 326 326 326 326 329 332 334 333 332 331 331 331 330 329 329 329 331 333 337 340 343 344 345 345 345 345 345 347 347 347 347 348 347 346 346 345 345 345 346 346 347 348 349 349 349 349 349 349 349 348 346 345 345 345 345 345 346 346 346 345 345 345 346 346 345 342 339 331 324 323 328 335 338 339 339 338 337 336
324 323 323 322 322 323 325 325 326 326 326 327 329 331 331 331 331 331 332 331 330 330 330 330 331 334 338 341 343 343 343 344 345 345 345 346 346 346 347 347 347 347 347 346 346 346 346 346 346 347 348 349 349 349 349 349 349 348 346 346 345 345 345 345 345 346 346 346 345 345 346 346 345 342 336 329 323 323 328 333 335 337 336 335 333
323 323 322 322 322 322 323 324 325 325 326 326 326 327 328 329 329 329 329 329 331 333 333 332 333 335 338 340 341 342 343 343 344 344 345 346 345 346 346 347 347 347 347 348 346 346 346 346 346 346 347 348 348 349 349 349 349 348 347 347 346 346 345 345 345 346 346 346 346 345 346 347 347 345 342 335 328 323 323 326 329 331 332 331 329
321 321 321 321 321 322 324 325 325 326 326 326 326 326 326 328 329 329 329 329 331 334 335 334 335 335 335 336 338 339 340 341 342 343 343 344 344 345 345 346 346 346 346 347 346 346 346 346 346 346 346 347 348 348 348 349 348 347 347 347 347 346 345 345 345 345 345 346 346 346 345 346 347 348 346 342 336 329 324 322 324 326 327 327 325
318 318 318 319 319 320 323 325 326 327 326 326 326 326 326 327 330 332 332 332 332 334 334 335 335 334 333 332 331 332 334 335 337 339 340 341 342 344 345 345 346 346 345 345 346 345 346 346 346 346 347 346 347 347 347 348 347 346 346 346 346 346 345 345 345 345 345 345 346 346 346 346 347 348 348 346 342 336 329 325 322 322 323 324 323
315 316 316 317 317 318 322 325 327 327 328 328 328 327 328 328 330 332 333 333 333 333 333 333 334 335 334 333 330 328 328 328 330 333 335 337 339 341 343 344 345 345 346 345 345 345 345 346 346 346 347 347 347 347 347 347 347 346 346 345 345 345 345 345 345 345 345 345 346 346 346 346 346 347 348 348 346 342 336 331 326 323 322 321 322
314 315 316 317 318 319 323 325 327 328 328 328 328 329 330 330 331 332 333 333 333 332 332 332 333 333 334 334 332 330 328 326 325 326 329 331 334 338 341 343 343 344 345 345 345 345 345 345 345 346 346 347 347 348 347 347 347 346 346 345 345 345 345 345 345 345 345 345 345 345 346 346 346 347 347 348 348 347 342 337 333 329 325 323 321
315 317 318 320 321 323 325 326 328 328 328 329 329 329 330 330 331 332 333 334 333 332 331 332 332 332 332 332 331 330 328 327 325 325 325 326 329 333 337 340 342 343 344 345 345 345 345 345 345 345 346 347 347 348 348 348 347 347 346 346 346 345 345 344 344 344 345 345 345 345 345 346 346 346 347 348 348 349 347 344 339 335 332 328 324
320 321 322 323 324 325 326 327 328 329 329 329 329 329 330 330 331 332 333 333 332 331 332 332 331 330 330 329 329 328 327 327 326 325 325 324 325 328 333 337 339 341 342 343 344 344 344 344 345 345 346 347 347 347 347 348 347 347 347 346 346 346 345 345 345 345 344 344 345 344 345 346 346 346 347 348 348 348 349 348 345 342 337 333 329
323 323 323 324 325 326 327 327 328 328 328 329 329 329 329 329 329 330 331 331 331 331 331 330 330 330 329 329 328 328 327 326 326 325 325 324 324 326 330 333 336 338 339 340 341 343 343 343 344 345 346 346 346 346 347 347 347 347 347 347 347 346 346 345 345 345 345 344 344 344 344 345 345 347 347 347 348 348 348 349 349 348 344 339 334
323 323 324 324 325 326 327 327 327 326 326 327 327 327 328 328 328 328 329 329 329 329 329 329 329 329 329 329 329 328 328 327 326 326 325 324 324 325 327 330 332 335 337 337 338 339 340 341 341 343 344 345 345 345 345 346 346 347 347 347 347 346 346 346 346 345 345 345 344 344 344 345 345 347 347 347 348 348 349 349 349 349 349 346 342
323 323 324 325 325 326 326 326 326 325 326 326 326 326 326 327 327 327 327 328 328 328 328 328 328 328 329 329 329 329 328 328 327 326 326 326 326 326 328 329 330 333 335 336 336 336 338 340 340 341 342 344 344 344 344 345 345 346 347 347 347 347 346 346 346 346 346 345 345 345 345 345 346 346 347 347 347 347 348 349 349 349 350 349 348
323 323 324 325 325 325 325 325 324 325 325 325 325 325 325 326 326 326 326 326 327 327 327 328 328 329 329 329 329 329 329 329 329 329 329 329 329 330 330 331 331 332 334 335 335 336 337 339 339 340 341 342 343 343 343 344 344 345 346 347 347 347 347 347 346 346 346 346 346 346 346 346 346 346 346 345 345 346 346 347 348 349 349 350 350
323 323 324 324 325 324 324 323 323 323 323 323 323 323 324 324 324 324 324 325 325 326 326 326 327 328 329 330 330 330 330 329 330 331 331 332 331 331 331 332 332 331 331 331 333 334 335 337 338 339 340 341 342 343 343 343 343 344 345 346 346 347 347 347 347 346 346 346 346 346 346 346 346 346 346 345 345 345 345 346 347 348 349 349 350
322 322 323 323 323 323 322 322 323 323 323 322 322 322 322 323 323 323 324 324 324 325 326 326 325 326 327 328 328 328 328 329 330 332 332 332 333 332 331 331 331 331 330 330 331 333 334 335 336 337 338 340 341 342 343 343 343 343 344 345 345 346 347 347 347 347 347 346 346 346 345 346 345 346 345 345 345 345 345 346 346 347 348 348 349
320 320 319 319 320 320 319 320 320 320 320 319 318 318 318 319 320 320 320 321 321 322 323 324 324 324 324 325 325 325 325 325 327 329 330 331 332 331 331 331 331 331 331 331 330 331 333 335 335 336 337 338 340 341 341 342 342 342 343 343 344 344 345 345 346 347 347 346 346 346 346 346 345 346 346 346 346 346 346 346 346 347 347 348 349
319 318 318 317 317 316 316 316 316 317 316 316 316 316 316 316 316 316 316 317 317 318 319 320 320 321 321 322 323 323 323 323 323 325 327 328 329 330 331 331 332 332 331 331 331 331 332 333 334 335 337 337 338 339 339 340 341 342 342 343 343 343 344 344 344 345 346 346 346 346 345 346 346 346 346 346 346 346 346 346 346 346 346 347 348
318 317 317 315 315 315 315 315 316 316 316 316 316 315 315 315 315 315 314 315 315 315 316 316 317 318 318 318 319 320 321 321 322 323 324 325 326 327 328 329 330 331 331 331 332 332 332 333 333 335 336 337 337 338 339 339 340 341 341 342 343 343 343 344 344 344 345 345 346 346 345 346 346 347 347 347 347 347 347 346 346 346 346 346 347
316 315 314 314 314 314 315 315 316 316 315 316 315 315 315 314 314 313 313 313 313 314 314 315 316 317 317 317 318 318 319 319 321 322 323 323 323 324 324 325 326 328 329 330 331 331 331 332 333 334 336 338 337 337 338 339 339 339 341 341 342 343 343 343 343 343 343 344 345 346 346 346 346 346 346 346 347 347 347 347 346 346 346 346 346
313 312 312 312 312 313 314 315 316 315 315 315 314 313 313 313 312 311 311 311 311 312 314 315 315 316 318 318 318 318 318 319 319 320 321 321 321 322 323 323 323 324 325 326 328 329 330 331 332 333 335 337 337 336 337 338 338 338 340 340 341 341 342 342 343 343 343 343 344 345 345 345 345 345 345 345 345 346 346 347 347 347 347 346 347
310 309 309 309 310 311 312 313 313 313 312 311 311 310 310 309 309 308 308 309 310 312 314 315 315 317 318 318 318 318 318 318 318 318 319 320 320 321 321 322 322 322 322 322 324 326 327 328 329 330 332 335 335 336 337 337 338 338 339 339 340 340 341 341 342 342 343 343 344 345 345 345 345 345 345 344 344 344 345 346 346 347 347 347 347
308 308 307 307 307 307 307 308 308 308 307 307 307 306 306 305 305 305 306 308 310 312 315 315 315 316 318 318 318 317 318 318 318 318 319 319 320 320 320 320 321 321 322 322 322 323 324 324 326 327 328 331 333 335 336 337 337 337 337 337 338 338 339 340 341 341 342 342 343 344 344 344 345 345 345 344 344 344 344 344 345 346 346 346 346
307 307 306 305 304 304 304 304 305 305 305 305 304 304 304 304 304 304 306 308 311 313 314 314 314 315 317 317 316 317 317 318 318 318 319 319 319 320 320 321 321 322 322 322 322 322 323 323 323 324 325 327 329 332 333 335 336 336 336 336 335 334 334 336 337 338 339 340 341 342 343 343 343 343 343 344 344 344 344 343 344 344 345 345 345
307 306 305 304 304 304 304 304 304 305 304 304 304 304 304 304 304 304 306 309 311 311 312 313 313 313 315 316 316 316 317 317 317 318 319 319 320 320 321 322 322 322 322 322 322 322 323 323 323 324 325 325 327 328 331 332 333 334 334 334 334 332 331 332 333 333 334 334 337 340 342 342 342 342 342 342 343 344 344 343 342 342 343 343 344
308 307 306 305 305 305 305 304 305 305 304 304 304 304 304 304 304 304 306 308 309 309 311 312 312 312 313 315 314 314 315 316 316 317 318 319 319 320 321 322 322 322 322 321 321 322 323 323 323 324 325 326 326 327 328 329 330 332 333 333 333 333 332 332 332 332 332 331 333 336 340 341 342 342 343 343 343 343 343 343 342 342 341 342 342
308 308 307 306 305 305 305 305 305 305 304 304 304 304 303 303 303 304 305 306 306 308 310 311 311 311 312 313 313 314 314 315 315 316 316 317 318 318 319 320 320 321 321 321 322 322 323 324 324 324 325 326 327 327 328 328 328 329 330 331 332 332 332 333 334 334 334 334 333 334 337 338 340 341 342 342 343 343 342 342 342 342 341 342 342
Wind_Speed
22 22 23 23 24 24 22 20 21 22 23 25 25 24 24 24 24 23 21 20 21 20 17 17 16 15 14 14 14 13 13 13 13 13 15 16 15 14 13 12 11 11 11 12 13 13 13 13 14 14 15 15 14 13 13 13 14 14 14 13 13 13 13 13 13 14 14 14 14 14 14 13 13 13 13 13 13 12 13 13 12 11 10 9 9
22 22 22 21 21 21 19 17 18 19 20 22 23 23 24 23 23 23 21 20 21 19 18 18 18 16 15 15 15 14 13 14 14 14 14 16 16 13 13 12 12 11 11 11 13 13 13 13 13 14 15 15 14 14 14 14 14 15 15 14 14 14 14 14 14 14 14 15 15 15 15 14 14 14 14 13 13 13 13 12 11 10 10 9 9
19 19 20 19 18 17 16 16 17 17 19 20 20 21 22 21 22 22 21 21 21 19 18 18 18 18 16 17 16 15 15 15 15 15 14 16 16 15 13 13 12 12 11 11 13 13 13 13 13 14 15 15 15 15 15 15 15 15 15 15 15 15 15 15 15 14 15 15 16 16 16 15 15 14 14 13 14 14 13 12 11 10 9 9 9
14 14 15 15 14 13 14 14 15 15 17 18 18 19 20 20 20 21 21 20 20 20 19 18 18 18 17 17 16 16 16 16 16 17 16 15 16 16 15 14 13 12 11 11 13 14 14 13 13 13 14 15 15 15 15 16 16 16 16 15 15 15 15 15 16 16 15 15 16 17 17 17 16 15 15 14 14 14 13 13 12 11 10 10 10
9 10 11 11 10 11 12 13 13 13 14 16 17 16 17 18 19 20 20 20 20 19 19 18 17 18 18 17 16 16 16 17 17 18 18 17 16 17 16 15 15 13 12 12 13 14 15 14 14 14 14 14 15 16 16 16 17 16 16 15 15 15 15 16 16 16 16 15 15 16 17 17 17 16 16 15 15 15 14 14 13 12 12 11 11
8 9 10 10 10 10 11 11 11 11 11 12 13 13 14 16 18 19 19 19 19 18 18 17 17 17 18 17 17 16 16 17 18 18 19 19 17 17 17 16 16 15 14 12 13 14 15 15 14 14 14 14 14 16 17 17 17 16 15 16 16 16 16 16 16 16 16 16 15 15 16 17 17 16 16 16 16 16 15 14 14 13 12 12 12
10 10 9 9 10 9 9 9 8 8 8 9 11 12 13 14 14 16 17 17 17 16 16 16 16 16 16 16 17 17 16 17 18 18 19 19 19 18 17 17 17 16 15 14 13 13 14 14 14 14 14 14 14 15 16 17 17 16 16 16 16 16 16 16 16 16 17 17 16 16 16 16 16 17 17 16 16 16 15 15 14 13 12 12 12
11 11 10 9 9 9 8 8 8 8 8 10 11 11 12 12 12 13 14 14 15 15 15 15 15 15 15 15 15 16 16 16 17 17 18 19 20 19 18 18 18 17 17 16 15 14 14 14 13 13 13 14 14 15 15 16 17 16 16 16 16 17 17 16 16 16 16 17 17 17 17 17 16 17 17 17 17 16 16 15 14 14 14 13 12
10 10 9 8 8 9 9 8 8 9 9 10 11 11 11 12 12 12 12 13 13 13 13 14 14 15 15 14 13 14 15 16 16 17 18 19 20 20 20 20 20 19 18 17 16 15 15 15 14 14 13 13 14 15 15 15 17 17 16 16 17 17 17 17 17 16 15 17 18 18 18 18 17 17 17 17 17 17 17 16 15 15 15 15 14
9 9 8 6 6 7 7 7 8 8 9 9 10 11 11 12 12 12 12 12 11 11 12 13 14 14 14 14 14 13 14 15 16 17 19 20 20 20 20 21 21 20 19 19 17 16 16 16 15 15 14 13 14 15 15 15 16 17 17 17 17 17 17 17 17 16 15 16 17 18 19 19 19 18 18 18 17 17 17 17 17 16 16 15 15
9 8 9 7 6 6 7 7 8 9 10 10 10 10 11 11 11 10 10 10 9 10 11 12 14 14 13 14 15 14 13 15 16 17 19 20 20 20 20 20 20 20 20 20 19 18 17 17 16 15 14 12 12 13 14 14 15 16 18 18 18 18 18 17 16 16 16 16 17 18 19 19 20 19 18 18 18 17 17 18 18 18 18 16 16
9 8 8 8 8 7 7 7 8 9 10 10 10 10 9 9 9 8 7 7 7 9 10 12 14 14 13 14 14 13 13 14 16 17 18 18 19 19 20 20 20 20 20 20 20 20 18 18 17 16 14 13 12 12 13 14 14 15 17 18 18 18 18 17 17 17 16 17 17 17 18 19 19 20 19 19 19 19 18 18 18 19 19 17 16
10 10 9 9 9 8 8 8 8 9 10 10 10 9 8 7 7 7 7 6 7 9 9 11 13 13 12 12 12 12 13 13 14 16 17 18 18 19 19 20 20 20 20 20 21 21 20 19 19 18 16 14 13 13 13 14 14 15 16 16 17 18 18 18 18 17 16 17 17 17 18 18 19 20 20 20 20 20 19 18 18 19 19 18 17
11 11 11 11 10 10 9 9 9 10 10 10 10 10 8 7 7 6 6 6 7 8 8 10 11 11 12 13 13 11 10 11 12 13 15 17 18 19 19 20 20 19 19 20 20 20 20 20 20 20 18 16 15 14 14 15 15 15 15 16 16 17 18 18 19 18 17 16 17 17 17 18 19 19 20 20 20 21 20 18 18 19 19 18 18
11 12 12 11 11 11 11 10 10 10 10 10 10 10 10 9 8 7 6 6 7 7 7 8 10 11 12 12 12 10 8 7 7 8 11 13 16 18 18 19 19 19 20 21 21 20 20 20 20 21 19 18 16 14 14 15 14 14 15 16 16 16 17 18 19 19 18 17 17 17 17 17 18 18 19 19 19 20 20 18 18 19 20 19 18
12 13 12 12 12 12 11 11 11 11 11 11 10 10 10 10 9 8 7 7 8 9 8 8 9 10 10 8 9 10 7 5 4 5 7 9 11 14 16 18 19 19 20 21 21 20 20 21 21 21 21 19 17 15 15 15 14 14 15 15 16 16 16 16 17 18 19 19 18 18 18 17 18 18 18 18 19 20 20 19 18 20 21 20 19
12 12 12 12 12 12 12 11 11 11 11 11 10 10 10 10 9 8 7 7 8 10 10 9 8 8 8 7 8 8 6 7 9 7 5 6 8 11 13 15 17 18 19 20 20 20 20 21 22 22 22 21 18 16 16 16 15 15 14 15 15 15 16 15 15 16 18 20 20 20 19 19 19 19 19 19 19 20 20 20 20 20 21 20 19
13 12 11 11 11 11 11 11 12 12 12 12 12 11 11 11 10 9 8 8 9 10 11 9 8 8 8 8 8 8 8 10 10 8 7 6 6 8 9 11 13 16 18 19 19 19 20 22 23 23 23 22 20 18 17 17 16 16 15 14 14 14 15 15 16 16 17 19 20 21 21 20 20 20 20 20 20 20 21 21 21 21 21 20 19
14 14 13 13 12 12 12 11 12 12 11 12 13 13 13 13 12 11 10 10 9 9 9 9 9 9 9 9 9 9 9 10 10 10 11 9 6 6 8 9 10 13 17 18 18 18 19 21 22 23 23 22 21 20 19 18 18 17 16 15 14 14 14 15 16 17 17 18 20 21 21 21 20 20 20 20 20 20 21 23 23 22 22 21 19
16 16 16 15 15 14 14 14 13 12 11 12 13 13 13 13 12 12 11 11 10 9 9 9 10 11 10 10 9 9 9 10 11 11 11 11 9 7 7 8 9 11 14 16 18 18 18 20 22 23 22 22 22 21 20 19 19 19 18 17 16 16 16 15 16 16 18 18 19 20 21 22 21 20 20 21 20 20 21 23 24 23 22 21 20
16 16 17 16 16 15 16 16 16 15 14 13 13 12 13 13 13 13 12 11 11 10 10 10 11 11 11 11 10 9 9 10 10 10 10 11 12 11 8 9 10 10 11 13 16 18 19 20 21 22 23 22 22 21 20 19 20 20 19 17 17 17 17 17 16 16 17 18 19 20 21 21 22 21 21 21 21 20 20 22 24 24 22 21 21
17 17 17 16 16 15 16 17 17 17 16 15 15 14 14 13 13 13 12 11 10 10 10 10 10 11 12 12 12 10 9 9 9 10 10 11 12 14 12 10 10 11 11 12 14 16 19 21 22 23 23 23 22 21 21 20 20 21 19 18 18 18 18 18 17 17 17 18 19 20 20 21 21 21 21 21 21 20 20 21 22 23 23 22 22
18 18 17 17 16 16 16 17 17 16 16 16 16 16 16 15 14 13 12 12 11 10 10 11 11 11 11 11 11 10 9 9 10 11 12 12 12 14 13 12 13 12 11 12 14 16 18 20 22 23 23 23 22 22 21 21 21 22 20 19 18 18 18 18 18 18 18 18 18 20 21 21 21 21 21 21 21 21 20 20 21 22 22 22 21
20 20 19 18 18 17 17 17 17 17 17 16 15 15 15 15 15 14 13 12 11 11 11 11 12 12 11 10 9 9 9 10 11 12 13 12 12 14 14 13 15 14 11 11 15 17 19 20 21 22 23 23 22 22 22 22 22 22 21 20 19 19 18 18 18 18 18 18 18 19 20 21 21 21 21 21 21 22 22 21 21 22 22 22 22
21 21 21 20 19 17 17 17 18 18 16 15 13 13 13 14 14 14 14 13 12 12 12 13 13 13 12 10 9 9 9 10 11 12 12 12 12 14 14 13 14 15 14 13 14 16 20 22 22 22 22 22 22 23 23 23 22 22 22 21 20 19 19 19 18 18 18 18 18 18 19 21 21 21 21 22 22 22 23 23 22 22 22 22 22
20 20 20 20 19 18 17 16 17 17 16 14 13 12 13 14 14 14 13 13 12 12 12 12 13 13 12 11 9 8 9 9 10 11 12 11 12 14 13 14 15 16 16 15 14 14 17 20 22 23 23 23 23 23 24 23 22 21 22 22 21 20 19 19 19 19 19 19 18 18 18 19 21 21 21 22 22 23 23 24 24 23 23 23 23
20 20 20 20 20 19 18 17 17 17 16 16 15 14 14 14 14 14 13 12 12 11 11 11 11 12 11 10 9 9 9 9 8 10 10 11 13 14 13 13 15 16 16 17 16 15 14 15 18 22 24 24 24 24 24 23 23 21 21 23 23 21 20 20 21 20 20 19 19 19 19 19 20 21 22 22 22 23 23 24 24 25 24 24 23
19 19 19 19 19 19 18 18 17 17 17 16 17 16 16 15 15 14 13 11 10 10 10 10 9 9 10 10 10 9 9 9 8 8 9 11 12 14 14 14 15 17 17 19 19 16 13 12 13 17 21 23 24 24 24 23 22 21 21 22 23 23 22 22 22 22 22 21 21 21 21 20 20 20 22 23 23 23 24 24 24 25 25 25 25
19 19 19 19 19 18 18 17 17 16 16 16 16 17 17 16 14 13 12 10 10 9 9 9 8 8 8 9 10 10 10 9 9 8 8 10 10 10 12 14 16 17 16 18 21 18 14 13 11 12 15 18 21 23 23 23 22 21 21 22 22 23 23 22 22 23 23 22 21 21 22 22 21 21 21 23 25 25 25 25 25 25 25 26 26
19 19 19 18 18 18 17 17 17 16 15 15 14 15 15 15 13 12 10 9 9 9 9 9 8 8 8 9 9 9 10 10 10 10 9 9 9 8 9 10 12 14 14 16 20 19 16 14 12 11 11 14 17 18 19 21 21 21 22 23 23 23 23 23 23 23 23 23 22 21 22 23 23 22 21 22 24 26 27 26 26 26 26 27 27
18 18 17 17 18 18 17 17 17 16 16 15 14 13 13 13 12 12 11 10 10 10 10 10 10 10 10 10 10 10 10 10 10 10 10 10 10 9 9 9 10 12 13 14 18 20 18 16 15 13 12 13 15 16 16 17 18 19 21 22 23 23 24 25 25 25 24 23 22 21 22 23 24 23 22 21 22 24 26 27 27 27 27 28 28
17 16 16 16 17 17 17 17 16 16 16 16 15 14 13 12 12 12 12 12 12 12 12 11 11 11 11 11 12 11 11 11 11 11 10 10 10 10 10 9 9 10 12 13 17 21 20 19 19 18 16 16 17 17 17 17 17 18 19 20 22 23 25 26 26 26 25 23 22 21 21 23 24 24 23 22 21 22 24 26 27 28 28 28 29
15 15 15 15 15 16 16 16 16 16 16 16 16 15 14 13 12 12 12 13 13 13 12 12 11 11 11 11 12 13 13 13 13 12 11 11 11 10 10 10 9 8 10 12 16 20 20 18 18 18 16 16 18 17 17 18 19 18 18 19 20 22 23 25 26 26 26 24 23 22 22 23 24 25 24 23 22 22 22 23 25 27 28 28 29
14 14 15 15 15 15 16 16 16 16 16 17 16 16 16 15 14 13 13 13 13 13 13 12 12 12 12 12 12 12 13 13 14 14 13 12 12 12 11 11 10 8 9 11 14 17 19 17 16 15 13 13 16 16 15 18 21 21 20 20 20 21 21 22 24 25 26 25 24 23 22 22 24 25 26 25 24 23 23 23 23 25 26 27 28
13 13 14 14 14 15 15 15 15 15 16 16 16 16 16 16 16 15 15 14 14 14 14 14 13 13 13 13 13 13 13 13 14 14 14 13 12 12 12 11 11 11 10 11 13 15 17 17 16 16 14 12 14 15 15 17 19 21 22 22 21 21 21 21 22 24 25 26 25 25 23 23 24 25 26 27 26 25 25 24 24 24 25 26 27
13 13 13 13 13 14 13 13 13 13 14 15 16 16 16 17 16 16 16 15 15 15 15 15 15 14 14 14 14 14 14 13 13 14 14 13 12 12 12 11 12 12 12 12 13 14 16 18 18 16 15 14 14 14 15 16 17 19 22 23 22 23 23 23 23 23 23 24 24 25 24 24 24 25 26 27 27 27 27 26 26 26 26 26 26
14 13 13 13 13 12 12 12 12 13 13 14 15 15 16 16 15 15 15 15 15 15 15 15 15 14 14 14 14 14 14 14 13 13 13 13 13 12 12 12 12 13 13 13 14 14 15 17 18 16 15 15 14 13 14 15 16 17 20 22 24 24 24 25 25 24 24 23 23 24 24 24 25 25 25 26 27 28 28 28 27 27 27 27 26
14 13 13 13 12 12 13 14 14 13 13 13 14 15 14 14 14 15 16 16 16 15 15 15 14 13 13 13 13 13 13 13 13 13 12 12 13 13 12 13 12 12 13 13 13 14 15 16 17 16 16 15 15 14 13 13 15 15 17 20 22 24 25 25 26 26 25 25 25 25 25 25 25 26 26 26 27 28 29 29 29 29 29 29 28
14 14 13 13 13 13 14 15 14 14 13 13 14 14 13 13 14 15 16 17 17 16 15 16 15 13 12 12 12 12 11 12 12 12 12 12 12 12 12 12 12 12 13 13 13 14 15 15 16 16 15 14 14 14 13 13 14 15 16 17 19 21 23 24 25 26 26 27 27 27 27 26 27 27 28 27 27 28 28 29 31 32 32 32 31
15 15 15 14 13 13 13 13 13 14 15 15 15 15 15 15 16 17 18 18 18 18 17 16 15 15 13 12 12 11 10 10 10 10 10 10 11 11 11 12 12 13 13 13 14 14 14 14 14 15 15 14 13 14 13 13 14 14 14 16 17 18 19 22 24 26 26 27 28 28 29 29 29 29 30 29 29 29 29 29 31 33 34 34 34
15 15 16 15 14 14 14 14 15 16 17 18 18 18 18 18 18 19 20 21 20 20 19 18 17 16 15 14 13 12 12 10 10 10 10 10 11 12 12 12 13 14 14 14 14 14 13 13 13 14 14 14 13 13 13 13 13 13 13 15 17 17 17 19 23 24 25 27 27 28 29 29 30 31 31 32 31 31 32 32 32 33 35 36 36
14 15 17 17 17 17 17 17 17 18 18 18 18 18 18 19 19 19 20 20 21 21 21 21 21 20 19 18 16 15 15 14 13 12 12 13 13 13 13 13 12 14 15 15 15 16 15 14 13 13 14 15 14 13 13 13 13 13 13 14 16 18 17 18 20 20 22 25 28 30 30 29 29 30 31 32 32 31 33 35 35 34 34 35 36
16 16 17 18 18 18 18 18 18 18 18 18 17 17 18 18 19 19 19 19 20 20 21 21 22 22 21 20 19 19 18 17 17 17 16 16 16 15 14 14 14 14 14 15 16 16 17 16 14 13 14 16 16 13 12 13 13 13 13 14 15 16 16 16 18 18 18 20 24 27 29 28 28 29 30 30 30 31 32 33 34 34 34 35 35
17 17 17 17 17 18 17 17 17 17 18 19 19 19 19 19 20 20 20 20 20 20 21 21 20 20 20 19 18 17 17 16 17 18 19 20 20 19 18 17 16 15 15 16 17 17 17 18 16 14 13 14 15 13 11 12 13 13 14 14 14 15 15 15 18 18 17 17 20 23 26 26 26 28 30 30 29 29 30 31 31 31 32 34 34
16 16 16 16 16 16 16 17 17 17 18 20 20 20 20 20 20 20 20 20 20 20 20 20 19 18 17 15 14 14 13 14 16 18 19 21 22 21 21 19 18 17 17 17 17 18 18 19 19 17 14 13 15 15 13 13 14 14 14 14 13 14 15 16 18 18 17 17 19 20 23 25 24 25 29 31 31 30 29 29 29 29 30 31 32
15 15 16 15 16 16 16 17 17 17 18 19 19 19 19 20 19 19 20 20 20 19 18 18 16 13 11 13 14 15 15 16 18 19 19 19 21 21 20 18 16 16 17 16 16 17 18 18 20 19 17 16 18 18 15 14 14 14 14 14 13 13 13 15 18 19 18 18 19 20 23 24 22 23 26 29 30 30 30 30 29 28 29 29 29
15 15 15 15 15 15 16 16 16 17 17 18 18 18 19 19 19 19 19 19 19 17 16 15 12 8 9 14 16 16 16 17 17 17 17 17 18 20 19 16 13 12 13 14 14 15 16 17 19 20 19 18 19 19 18 16 16 15 14 12 12 13 13 14 15 16 17 18 19 22 26 25 23 24 26 27 28 29 31 32 31 29 28 28 27
15 16 15 15 15 15 15 16 16 17 17 17 17 18 19 20 20 19 18 18 17 16 14 13 11 5 7 16 19 15 15 16 15 14 15 15 16 18 18 16 12 10 12 13 13 14 14 15 16 18 19 19 19 18 18 17 17 16 14 12 12 13 14 15 14 14 14 14 15 18 24 26 25 25 27 26 26 27 29 30 31 30 29 28 28
17 17 16 16 16 16 17 18 18 19 18 18 18 20 20 21 20 19 17 16 16 16 13 12 13 7 4 13 21 17 15 16 15 14 14 15 15 15 15 14 12 12 14 15 14 13 11 11 12 13 15 17 17 17 17 17 17 16 14 14 14 14 15 16 16 15 14 13 12 13 17 21 22 23 25 25 26 27 28 29 29 29 29 29 29
18 18 18 18 18 18 19 19 20 20 20 20 21 22 22 23 22 20 18 16 15 15 14 13 15 12 4 7 16 18 16 16 16 15 15 16 16 16 15 14 14 14 15 16 16 13 9 9 10 10 11 13 15 16 17 17 16 14 13 14 14 14 15 16 16 16 16 15 13 10 12 16 17 16 18 21 24 26 26 27 27 28 28 29 29
19 19 18 18 18 19 19 20 20 21 22 22 23 23 24 24 23 20 19 18 16 15 14 12 14 14 10 9 13 15 14 15 15 15 16 17 18 18 18 18 18 17 16 16 16 15 13 13 13 11 8 8 11 13 14 15 15 15 14 14 14 15 15 16 16 16 17 16 13 10 11 13 14 13 13 15 19 21 21 21 23 24 26 27 28
Wind_Direction
268 267 265 267 268 269 270 270 269 269 269 270 269 267 265 265 266 264 264 265 267 266 264 261 257 251 248 248 248 251 252 251 249 243 232 223 221 229 235 235 234 235 237 241 240 239 238 235 234 233 232 230 227 225 226 229 230 228 225 221 222 222 225 228 227 226 224 223 225 225 225 223 220 222 225 227 227 228 230 233 235 234 233 233 230
276 274 270 269 269 269 274 275 274 275 275 275 273 269 266 265 265 264 263 264 265 266 265 264 264 259 254 255 256 255 253 249 244 239 233 225 220 221 226 230 231 232 235 236 235 236 237 236 233 232 232 231 229 226 225 227 230 230 227 224 223 222 223 226 227 228 225 223 225 224 223 222 219 218 222 224 224 224 227 229 231 231 230 230 230
281 280 277 276 273 270 276 281 281 282 279 277 274 271 267 267 266 263 262 262 265 267 264 263 265 264 260 260 261 258 252 246 241 236 231 225 221 219 221 229 232 230 231 232 232 233 237 237 233 231 231 232 231 228 226 225 229 230 228 226 224 222 222 224 224 226 226 225 225 224 224 223 221 220 222 224 221 221 226 229 229 226 226 229 230
283 285 284 283 284 282 287 291 289 285 282 283 282 276 268 267 267 264 263 265 269 272 270 268 268 266 263 261 260 258 253 245 239 234 231 226 224 222 220 226 233 232 230 231 231 232 235 237 235 231 230 232 231 230 228 226 229 230 229 227 225 222 222 224 223 222 222 224 225 225 226 225 223 223 224 226 223 223 226 230 231 225 222 225 229
294 294 290 293 296 294 297 300 298 291 289 293 291 282 271 268 267 265 265 267 270 272 272 271 270 267 264 262 261 259 254 246 239 234 232 228 226 227 223 223 228 230 230 229 230 231 232 234 235 232 229 230 231 231 230 228 229 231 230 229 228 227 225 226 226 225 223 222 224 226 226 225 223 223 224 226 225 224 225 230 233 230 225 224 228
311 304 300 310 312 306 309 310 306 296 292 295 293 287 279 273 269 268 268 267 270 271 270 271 270 268 266 267 266 262 255 247 240 235 232 230 227 228 226 222 223 227 229 227 226 230 231 231 234 234 230 229 229 231 233 231 230 232 232 230 229 230 229 228 229 230 228 224 224 226 226 225 225 223 223 225 226 226 226 229 231 232 231 230 230
324 317 315 321 318 313 317 319 310 300 298 298 292 289 289 286 278 276 275 270 268 268 268 269 269 267 267 267 266 263 255 245 239 235 232 231 229 228 227 223 221 225 230 229 223 225 229 229 232 236 233 230 230 231 233 233 232 232 233 231 229 229 231 231 231 231 231 228 226 227 227 227 226 224 225 226 227 228 229 232 234 234 236 236 235
325 322 321 325 322 318 320 322 319 317 316 308 300 298 297 296 290 284 281 274 268 266 267 267 268 268 268 268 266 261 255 246 240 236 232 232 230 228 227 226 223 222 227 231 226 221 224 226 229 234 235 235 233 232 233 233 233 234 234 233 231 230 230 231 233 234 233 231 229 228 229 229 228 226 227 227 228 229 230 233 235 236 237 238 238
323 323 321 326 323 322 325 326 326 324 318 310 307 306 300 296 293 288 282 275 270 269 270 270 268 269 269 269 266 259 255 250 243 239 234 233 232 230 228 228 225 222 222 228 229 222 219 222 225 231 234 236 237 236 235 233 233 234 235 234 233 233 232 230 233 235 234 232 230 229 228 228 228 228 228 228 228 230 230 232 234 235 237 238 239
340 336 332 340 327 322 325 323 324 321 315 312 313 314 310 306 301 294 284 277 274 274 276 277 274 271 271 270 266 260 257 255 251 245 239 235 234 234 232 230 227 223 221 224 228 226 221 220 222 228 232 234 237 238 236 235 233 233 233 234 234 234 235 233 234 236 235 234 231 229 228 227 228 228 228 230 230 231 232 233 233 234 236 237 238
355 349 345 351 345 336 330 327 327 325 323 320 321 323 321 319 313 305 290 280 280 282 281 285 285 278 274 273 270 264 257 254 253 249 244 240 237 237 236 233 230 226 223 224 228 229 226 223 221 224 228 230 235 237 237 238 236 233 230 232 234 235 237 236 236 238 238 236 232 230 228 226 227 229 228 230 232 232 233 234 233 232 235 236 237
7 3 358 357 353 347 338 335 333 331 334 336 336 334 332 331 327 319 301 281 279 285 282 285 288 281 274 275 275 270 261 255 252 250 248 245 240 238 236 236 236 232 228 225 227 230 230 228 224 223 221 223 232 238 239 239 240 238 234 232 233 235 237 238 237 237 239 239 234 232 230 226 226 229 229 228 231 232 233 237 234 230 231 234 236
20 15 12 9 3 354 346 346 341 335 340 351 352 345 342 342 339 333 319 297 281 279 279 281 283 281 279 278 276 272 267 261 256 252 249 247 244 241 239 238 238 237 235 230 228 229 231 231 228 224 221 221 227 236 241 242 240 240 239 236 234 234 236 237 238 237 238 242 238 232 230 227 225 228 229 228 231 232 233 237 235 227 228 231 234
23 18 16 15 10 2 358 359 354 347 349 0 2 352 349 349 348 346 340 323 300 286 281 280 280 282 285 286 285 279 270 265 263 258 252 249 247 245 243 241 238 238 239 238 234 231 230 231 229 224 222 224 226 229 238 243 243 240 238 238 236 235 234 234 237 237 237 240 239 234 231 230 228 228 230 229 231 232 232 236 233 224 226 230 232
16 13 14 15 13 9 7 4 2 357 356 4 5 357 351 350 353 352 349 337 317 305 289 279 280 284 285 288 293 297 290 269 258 259 257 251 249 247 245 242 241 240 240 240 238 234 230 229 228 223 221 224 227 228 233 238 239 239 238 237 236 237 235 233 234 237 238 238 238 237 236 234 233 231 231 231 232 231 232 236 231 222 223 228 230
17 14 17 19 17 16 15 11 9 5 2 6 5 360 355 353 354 352 344 336 324 315 302 287 284 288 288 286 290 300 303 286 272 274 268 258 250 246 245 244 241 240 240 240 238 234 230 228 227 224 223 224 227 230 233 235 234 235 237 237 236 236 236 235 234 234 236 238 238 238 237 235 234 233 232 232 232 231 232 235 229 222 223 227 228
25 21 20 20 20 20 19 16 15 12 9 10 10 7 3 358 358 352 337 333 327 315 309 305 297 294 297 294 289 288 289 299 307 302 278 266 258 248 244 243 241 238 239 241 240 234 229 227 227 227 226 226 226 227 230 232 232 231 231 232 232 232 232 233 233 232 232 235 237 236 235 234 233 233 232 233 234 233 234 234 230 224 223 225 227
22 18 13 12 13 14 16 15 12 12 13 13 12 11 10 10 8 358 341 333 321 306 306 311 305 297 297 294 290 285 288 300 305 297 289 283 267 258 252 246 242 238 236 239 239 234 229 228 230 231 231 231 228 225 225 228 230 231 230 228 229 231 232 233 234 233 231 231 233 234 234 233 233 233 232 232 234 235 235 234 231 225 222 224 227
15 13 10 6 4 3 5 5 3 4 6 7 6 5 6 10 11 1 349 341 326 308 305 308 305 302 299 297 295 293 291 291 288 292 300 297 274 259 260 258 249 241 237 237 238 235 231 231 232 235 236 235 233 229 226 226 229 232 233 231 230 232 234 235 235 235 234 231 231 232 232 232 233 234 234 233 234 236 236 233 230 223 221 225 228
12 11 8 6 4 2 0 359 358 355 354 356 359 1 2 3 5 3 357 352 343 333 323 311 303 302 300 298 298 295 289 284 286 293 294 290 286 274 258 258 256 250 245 240 240 239 236 235 234 236 237 238 238 235 231 229 230 231 232 232 232 232 234 235 237 237 236 234 233 233 232 230 232 233 234 235 235 237 236 232 227 220 219 226 229
10 9 6 5 2 360 358 355 355 353 351 350 351 355 359 358 359 2 3 360 352 346 341 327 313 310 306 298 290 288 287 280 281 286 281 280 286 287 277 264 256 253 252 249 247 244 242 240 238 237 238 239 239 238 236 232 232 231 230 231 232 233 235 236 238 238 237 237 236 236 235 232 231 231 233 234 235 236 235 229 223 218 217 224 227
7 5 3 3 1 358 355 352 352 351 348 347 346 347 351 353 355 356 359 359 354 348 344 336 326 320 314 305 292 285 287 285 282 283 282 278 279 283 289 287 272 256 246 248 250 248 245 243 241 240 240 240 239 239 239 235 231 230 229 229 232 235 236 237 239 240 239 238 238 238 238 236 233 231 231 232 233 233 232 227 222 220 220 222 224
1 1 1 360 358 357 354 352 351 350 348 347 347 347 347 349 351 350 349 350 350 348 346 342 337 331 325 320 306 291 287 290 290 287 283 278 275 278 284 289 285 270 245 238 242 244 244 242 242 244 244 243 242 241 241 239 235 230 226 228 232 235 237 238 239 240 240 240 239 238 239 239 237 233 231 231 230 230 230 228 224 223 223 223 222
354 354 357 357 356 354 352 351 351 350 350 349 349 348 347 346 348 347 344 343 343 343 343 342 343 341 335 331 322 304 288 276 275 278 278 277 276 276 277 281 283 281 269 249 242 242 241 241 241 244 248 249 248 246 244 244 241 233 226 226 230 235 237 238 239 239 240 240 239 240 240 240 240 237 233 231 229 229 230 230 228 227 227 226 224
350 350 352 353 353 351 349 348 348 348 348 347 346 344 344 343 345 345 343 341 338 336 337 336 339 342 340 336 330 318 305 286 273 272 274 277 280 278 278 279 279 281 283 272 257 247 242 241 242 244 247 250 252 253 251 249 246 239 233 229 228 232 235 236 237 237 238 240 239 240 240 241 241 240 236 233 230 229 229 231 232 231 231 230 228
349 349 347 347 346 346 345 342 341 342 341 340 337 336 337 338 340 342 341 341 338 333 333 335 334 334 335 336 333 323 313 301 286 277 271 272 279 281 282 283 280 281 285 282 274 263 251 244 242 243 245 247 250 253 254 254 251 244 241 239 235 233 234 234 234 235 237 240 241 240 241 241 242 240 238 235 233 231 229 230 233 234 234 233 230
346 345 343 341 340 339 338 336 335 335 335 334 332 330 330 331 333 335 335 338 340 335 334 336 335 331 330 332 332 327 322 315 301 288 279 271 270 272 276 281 283 284 284 283 281 276 268 254 243 242 243 245 246 249 252 256 256 251 248 248 245 241 237 235 234 235 236 238 241 243 242 242 242 241 239 236 235 234 231 230 231 233 234 233 231
338 338 338 338 337 334 333 332 331 330 329 330 329 329 328 328 329 329 330 334 338 338 336 337 338 338 338 335 333 334 332 327 317 302 291 284 278 272 266 265 274 282 284 283 283 282 282 273 255 245 243 243 244 246 248 252 255 255 252 251 250 247 243 238 235 236 237 238 241 244 245 244 244 243 241 238 236 235 234 232 231 231 232 232 230
331 331 332 332 332 331 330 328 328 328 327 327 326 327 328 329 331 331 329 331 334 333 332 331 332 335 341 340 338 337 335 333 332 327 312 300 294 284 271 263 265 273 279 283 284 286 288 286 277 260 247 242 242 243 244 246 249 251 250 248 248 247 245 242 239 238 239 241 243 245 246 246 246 246 245 242 238 236 235 235 234 233 232 232 231
328 327 326 326 326 325 325 326 328 328 328 328 326 325 324 326 331 334 332 330 331 329 326 322 319 319 326 333 334 334 332 332 334 337 333 321 312 302 288 276 268 268 271 277 282 285 287 285 281 273 254 239 236 238 240 242 245 245 245 245 245 246 245 244 243 241 240 242 245 247 248 247 248 247 248 247 244 240 237 236 236 236 235 234 234
329 328 325 324 322 321 323 324 325 327 328 329 330 328 325 323 324 326 327 327 327 327 325 320 314 310 312 318 322 323 325 326 326 326 328 328 323 316 306 294 280 274 272 272 277 280 282 283 280 272 259 240 231 233 237 239 243 243 243 244 243 243 243 242 243 243 242 242 245 248 248 247 247 247 248 249 248 245 241 239 238 237 237 237 237
333 331 329 327 324 323 324 323 323 324 325 327 329 330 329 324 320 319 320 322 324 326 327 324 318 311 308 310 313 315 318 319 319 318 317 318 319 319 316 306 294 288 281 275 275 277 278 282 282 277 269 252 237 236 239 240 241 241 241 242 242 241 240 239 240 241 242 243 245 248 247 245 245 246 247 248 250 249 246 242 241 239 239 239 239
337 336 335 334 332 329 327 325 324 323 323 325 327 328 328 325 321 319 316 319 322 323 325 324 320 315 310 308 309 310 313 314 314 315 313 311 310 310 311 308 303 301 293 283 280 281 283 284 284 284 280 264 249 244 246 244 240 238 240 241 240 240 239 239 239 238 239 242 246 248 246 244 244 244 245 246 249 250 249 246 243 241 240 239 239
345 343 342 340 337 334 331 328 326 326 325 327 327 327 327 326 324 322 319 319 320 320 321 321 320 317 314 312 310 308 308 309 311 313 312 310 307 304 304 305 306 304 298 290 286 288 291 292 288 287 285 273 258 253 255 252 244 240 240 240 240 239 238 239 239 239 239 241 245 247 246 244 243 243 244 245 246 248 250 249 246 243 241 239 238
351 347 344 342 338 335 332 330 329 328 327 328 329 328 327 326 324 322 321 320 319 319 318 318 318 317 315 313 313 312 309 307 308 309 310 310 307 303 300 300 301 300 298 295 292 293 295 294 292 288 288 287 271 259 260 260 253 246 243 241 241 240 239 238 239 240 241 242 243 244 244 243 242 242 243 245 246 246 248 249 249 247 243 241 239
355 352 348 343 340 339 339 336 332 330 329 329 329 328 327 327 325 323 322 320 319 317 315 314 315 315 314 313 313 314 313 311 308 307 307 307 304 301 299 295 294 295 296 295 294 295 296 295 295 292 291 292 283 269 266 266 261 252 246 242 239 240 240 239 238 238 239 241 242 241 241 241 241 241 242 244 246 247 247 247 248 249 247 243 241
356 353 351 349 348 347 345 341 336 333 332 330 328 328 327 327 326 327 327 326 323 320 316 315 315 315 314 314 313 314 314 315 313 310 307 305 303 302 300 298 295 292 293 294 294 294 295 296 298 296 292 291 287 281 275 272 267 259 251 246 241 240 240 240 241 240 240 240 241 240 240 239 240 240 242 244 247 249 248 247 247 248 248 246 244
356 355 355 356 355 351 347 347 346 345 344 340 336 333 328 326 327 329 330 329 328 326 324 323 321 316 314 314 314 314 314 315 317 317 314 310 307 306 304 302 299 296 294 294 294 295 294 294 297 297 294 292 291 289 285 282 277 269 260 253 246 243 242 242 242 243 244 244 243 242 242 242 242 243 245 246 248 249 249 248 246 245 246 246 245
359 360 1 0 357 354 352 353 353 352 351 346 341 336 331 328 329 328 326 326 326 326 327 328 326 321 317 314 313 313 313 315 319 320 319 319 315 308 306 305 302 300 298 295 294 294 294 294 296 297 296 294 293 291 291 292 288 280 273 266 257 251 248 246 245 245 245 247 247 246 245 245 245 247 248 249 250 250 248 247 245 243 244 244 245
4 5 4 0 356 353 351 350 346 343 339 336 334 332 329 326 326 324 322 322 321 320 321 323 324 323 320 316 312 310 309 311 316 316 315 319 318 309 305 306 304 301 297 294 292 290 292 295 297 298 298 296 292 291 293 296 294 287 281 276 269 264 259 253 249 247 247 248 249 249 249 248 247 247 249 250 250 250 250 248 246 243 242 242 243
4 3 360 354 349 347 345 341 338 335 334 334 335 335 333 328 323 322 320 319 318 315 313 313 314 315 315 312 310 309 306 303 303 304 302 299 297 297 300 303 304 303 299 295 294 291 290 293 296 298 298 296 296 297 296 294 293 288 284 279 274 273 271 260 251 248 248 248 248 248 247 248 248 249 250 251 250 249 251 251 249 245 242 241 242
360 358 354 347 344 344 342 340 340 339 340 343 343 341 339 335 332 329 326 322 320 316 312 309 308 307 307 304 303 303 303 299 292 290 292 288 281 281 288 293 296 300 302 301 299 298 295 293 294 298 300 298 298 301 300 294 294 293 289 282 276 274 275 270 261 254 250 249 250 249 247 247 248 249 250 251 251 250 250 250 248 247 245 244 244
357 355 350 344 343 343 342 342 343 342 343 344 345 344 342 340 339 338 336 331 328 323 318 314 312 310 308 305 302 299 299 297 291 287 288 288 286 283 283 285 287 290 296 300 299 301 300 296 292 294 300 301 298 300 303 299 295 293 286 279 275 273 274 275 272 264 256 254 255 254 252 250 250 250 250 250 251 251 251 250 250 250 249 248 247
357 354 350 345 343 343 343 343 342 341 339 339 343 344 343 340 337 337 338 336 333 329 324 321 320 319 317 315 310 303 299 296 293 291 290 288 289 290 288 286 285 283 285 290 292 294 296 297 294 289 293 302 301 299 300 296 290 287 284 280 279 277 275 274 273 271 266 263 262 260 257 253 251 251 250 249 250 252 252 252 252 253 252 250 250
359 355 351 347 344 343 342 341 341 339 337 338 341 341 339 337 334 334 335 335 334 332 328 326 325 326 327 329 327 321 317 311 301 295 294 294 294 293 291 290 290 288 285 284 283 283 286 291 293 289 285 288 291 291 290 287 285 284 284 283 281 280 277 270 267 268 266 264 264 265 262 256 253 252 250 249 250 251 252 253 253 252 251 250 249
360 357 354 351 349 346 343 342 341 340 339 340 341 339 336 334 334 334 335 334 334 335 332 330 330 333 344 348 345 341 337 328 318 311 307 307 305 302 299 299 297 295 291 286 282 278 277 280 284 286 285 281 281 284 284 283 282 279 279 282 281 281 279 272 266 264 263 262 263 266 265 261 257 256 253 251 252 253 253 255 254 252 250 249 248
3 1 358 355 354 351 348 348 348 348 348 346 343 340 338 336 337 338 338 337 337 341 341 339 337 352 12 2 351 344 339 332 328 326 323 319 318 316 315 315 310 303 300 297 292 286 279 276 276 278 280 280 279 280 278 277 278 276 274 277 281 285 286 280 272 266 265 264 262 263 265 264 261 259 256 253 255 255 253 254 255 252 251 251 251
9 7 5 3 2 2 2 1 3 3 359 356 354 350 346 344 345 346 346 345 345 351 354 348 347 13 29 5 353 342 335 333 331 329 326 323 327 329 329 333 338 336 329 321 311 300 289 282 278 275 274 274 275 278 278 276 277 279 276 272 278 288 291 288 282 275 273 272 266 263 266 267 265 264 262 260 260 260 256 253 254 253 252 253 253
18 17 17 17 16 15 14 13 15 14 11 9 9 3 357 356 355 355 357 357 356 1 3 356 354 4 35 9 357 342 330 333 332 327 325 324 326 329 331 336 342 343 339 334 326 314 298 291 290 284 277 272 270 271 275 276 280 285 285 278 279 285 287 287 287 285 285 285 279 271 269 269 268 267 267 265 263 261 259 256 255 255 254 253 253
24 23 23 24 22 21 21 20 22 22 20 19 18 13 8 5 3 2 3 3 1 4 8 4 359 357 359 2 353 340 332 335 335 331 329 327 327 329 330 330 330 331 335 335 331 325 319 317 316 301 279 268 263 261 263 267 271 277 279 278 279 282 282 284 289 291 292 293 290 283 274 273 276 275 271 268 266 263 262 261 260 259 257 256 255
24 24 24 23 22 22 23 23 23 24 24 23 22 19 15 11 8 5 4 5 6 8 9 4 354 353 353 347 342 338 336 338 339 336 333 329 328 330 330 328 327 329 333 334 332 333 333 333 331 322 298 272 263 260 259 258 258 260 264 267 269 273 276 278 283 288 292 292 293 293 286 280 282 283 277 274 276 275 270 266 264 262 260 259 258